[[{"header":{"parameterUnit":"m.s-1","parameterCategory":1,"la1":30.2991,"la2":30.254,"lo1":-89.0895,"lo2":-89.0444,"dy":0.0017,"dx":0.0017,"nx":28,"ny":28,"refTime":"2024-07-15T03:00:00:Z","depth":0,"parameterNumber":2,"parameterNumberName":"U-component_of_WINDS"},"data":[0,0,0,0,0,0,0,0,0,0,0,0,0,0,0,0,0,0,0,0,0,0,0,0,0,0,0,0,0,0,0,0,0,0,0,0,0,0,0,0,0,0,0,0,0,0,0,0,0,0,0,0,0,0,0,0,0,0,1.1014,1.1015,0,1.1146,1.1147,1.1149,1.1211,1.1211,1.1211,1.1211,1.1346,1.135,1.1353,0,0,0,0,0,0,0,0,0,0,0,0,0,1.0815,1.0818,1.1014,1.1015,1.1017,1.1145,1.1147,1.1149,1.1211,1.1211,1.1211,1.1211,1.1345,1.1349,1.1354,0,0,0,0,0,0,0,0,0,0,0,0,0,1.0919,1.0819,1.1013,1.1063,1.1069,1.1145,1.1147,1.1149,1.1211,1.1211,1.1211,1.121,1.1344,1.1349,1.1354,1.1391,0,0,1.1371,1.1374,0,0,0,0,0,0,0,0,1.0913,1.0927,1.1054,1.106,1.1067,1.1162,1.1127,1.123,1.1211,1.1157,1.1211,1.121,1.1285,1.1295,1.132,1.1397,1.1403,1.1372,1.1375,1.1378,1.1379,0,0,0,0,0,0,0,1.0906,1.0921,1.1066,1.1056,1.1064,1.1079,1.1094,1.1147,1.122,1.1162,1.1166,1.1181,1.1288,1.1315,1.1324,1.1405,1.1372,1.1377,1.138,1.1382,1.1518,1.1519,0,0,0,0,0,0,1.0891,1.0915,1.1062,1.107,1.0988,1.1083,1.1099,1.1131,1.122,1.1233,1.1181,1.1184,1.1305,1.1317,1.1329,1.1378,1.1377,1.1383,1.1386,1.1518,1.1518,1.1519,0,0,0,0,0,0,1.0886,1.0903,1.1056,1.0994,1.1014,1.1086,1.1122,1.1134,1.1161,1.1234,1.1248,1.1195,1.1306,1.1321,1.1375,1.1383,1.1385,1.139,1.1518,1.1518,1.1518,1.1475,0,0,0,0,0,0,1.088,1.0901,1.0916,1.0994,1.1017,1.11,1.1122,1.1137,1.117,1.1174,1.1251,1.1263,1.1307,1.1366,1.138,1.1391,1.1394,1.1517,1.1518,1.1518,1.1476,1.1474,1.1472,0,0,0,0,0,1.0873,1.0898,1.0916,1.0934,1.1037,1.11,1.1114,1.1163,1.117,1.1186,1.1233,1.1261,1.138,1.1371,1.1388,1.14,1.1517,1.1518,1.1518,1.1477,1.1474,1.1472,0,0,0,0,0,0,1.082,1.091,1.093,1.0982,1.1033,1.1111,1.1132,1.1159,1.121,1.1212,1.1271,1.1288,1.1336,1.1373,1.1362,1.144,1.1451,1.1455,1.1414,1.1412,1.141,1.14,1.1399,0,0,0,0,0,1.0814,1.0858,1.0934,1.0972,1.0997,1.1059,1.1089,1.1122,1.1178,1.12,1.1251,1.1304,1.1353,1.1384,1.1434,1.1481,1.1499,1.1497,1.1495,1.1493,1.1496,1.1524,1.1524,1.1521,1.1521,1.1521,0,0,1.0803,1.0857,1.0882,1.0963,1.1006,1.105,1.1077,1.1123,1.1156,1.1207,1.1261,1.13,1.1363,1.1413,1.1438,1.1446,1.1501,1.1494,1.1492,1.1496,1.1525,1.1525,1.1525,1.1521,1.1521,1.1521,0,0,1.0805,1.0851,1.0888,1.093,1.0996,1.1038,1.1046,1.112,1.1148,1.1202,1.1241,1.1282,1.1365,1.1408,1.1441,1.1458,1.1486,1.1473,1.1463,1.1489,1.1489,1.149,1.1496,1.1497,1.1475,1.1475,1.1475,0,1.0783,1.0851,1.0903,1.0946,1.0981,1.1028,1.1066,1.1105,1.1183,1.1206,1.1213,1.1318,1.1364,1.1425,1.1429,1.1454,1.1466,1.1465,1.1485,1.1486,1.1487,1.1494,1.1496,1.1473,1.1473,1.1474,1.1474,0,1.0821,1.0867,1.0889,1.0963,1.1,1.104,1.1097,1.1128,1.1158,1.1199,1.1254,1.131,1.1372,1.1388,1.1418,1.1454,1.1456,1.1473,1.1486,1.1485,1.1492,1.1495,1.147,1.1471,1.1472,1.1472,0,0,1.0794,1.0896,1.0903,1.0937,1.1013,1.1049,1.1091,1.1151,1.1177,1.1228,1.1265,1.1334,1.135,1.1387,1.1422,1.1445,1.1455,1.146,1.1462,1.1457,1.1498,1.1485,1.1487,1.1474,1.1474,1.1475,1.1493,0,1.0807,1.0885,1.0932,1.0991,1.1034,1.1079,1.1116,1.1166,1.1204,1.1247,1.129,1.1338,1.1355,1.1378,1.1402,1.1449,1.1464,1.1448,1.1509,1.151,1.1492,1.1491,1.1478,1.1492,1.1496,1.1496,1.1497,0,1.0833,1.0884,1.0946,1.1017,1.1037,1.1069,1.1127,1.1167,1.1224,1.1251,1.1291,1.1326,1.1372,1.138,1.1444,1.1432,1.146,1.1486,1.1488,1.1496,1.1504,1.1499,1.1497,1.1499,1.1502,1.1501,1.1501,0,1.0808,1.0892,1.094,1.0968,1.1051,1.1072,1.1108,1.1165,1.1198,1.1248,1.127,1.1326,1.1356,1.1398,1.1447,1.1448,1.1506,1.1518,1.153,1.1528,1.1541,1.1539,1.1543,1.1557,1.1557,1.1557,1.1557,0,1.0818,1.0854,1.093,1.096,1.1002,1.1055,1.1096,1.1135,1.1185,1.1223,1.1265,1.13,1.1362,1.1405,1.1443,1.149,1.1504,1.1526,1.1536,1.1523,1.152,1.1542,1.1543,1.1557,1.1557,1.1557,1.1557,0,1.0797,1.0849,1.0905,1.0978,1.0998,1.1026,1.1089,1.1119,1.116,1.1207,1.1221,1.1285,1.1337,1.1389,1.146,1.1485,1.1532,1.1545,1.1512,1.1518,1.1526,1.1525,1.1545,1.1551,1.156,1.1559,1.1559,0,1.08,1.0829,1.0906,1.0935,1.0969,1.1014,1.1048,1.1101,1.1135,1.1202,1.1224,1.1279,1.1326,1.1406,1.1459,1.1512,1.1528,1.1531,1.1536,1.1522,1.1528,1.1526,1.1529,1.1529,1.1529,1.1529,1.1528,0,1.08,1.0825,1.0871,1.0927,1.0966,1.1012,1.106,1.1081,1.1144,1.1179,1.1232,1.1268,1.134,1.1394,1.1453,1.149,1.152,1.1526,1.1532,1.1519,1.1499,1.151,1.1507,1.1526,1.1526,1.1526,1.1526,1.1526,1.0792,1.082,1.0878,1.0929,1.0971,1.1014,1.1046,1.1091,1.1136,1.1198,1.1227,1.128,1.1337,1.142,1.1456,1.1498,1.1506,1.1514,1.1516,1.1518,1.1515,1.1491,1.1509,1.1509,1.1509,1.151,1.151,0,1.0795,1.0834,1.088,1.0946,1.0986,1.101,1.1064,1.1095,1.1142,1.1192,1.1237,1.1298,1.135,1.1406,1.1462,1.1485,1.15,1.1498,1.1497,1.1505,1.1504,1.1494,1.1485,1.1485,1.1485,1.1485,1.1485,1.1485,1.0801,1.085,1.088,1.095,1.0989,1.1042,1.1071,1.1111,1.1151,1.1217,1.1261,1.1297,1.1349,1.1409,1.1458,1.1473,1.1492,1.1485,1.1504,1.1503,1.1505,1.1507,1.1497,1.1489,1.1489,1.1502,1.1502,1.1502]},{"header":{"parameterUnit":"m.s-1","parameterCategory":1,"la1":30.2991,"la2":30.254,"lo1":-89.0895,"lo2":-89.0444,"dy":0.0017,"dx":0.0017,"nx":28,"ny":28,"refTime":"2024-07-15T03:00:00:Z","depth":0,"parameterNumber":3,"parameterNumberName":"V-component_of_WINDS"},"data":[0,0,0,0,0,0,0,0,0,0,0,0,0,0,0,0,0,0,0,0,0,0,0,0,0,0,0,0,0,0,0,0,0,0,0,0,0,0,0,0,0,0,0,0,0,0,0,0,0,0,0,0,0,0,0,0,0,0,4.6961,4.6961,0,4.6892,4.6891,4.689,4.6855,4.6855,4.6856,4.6856,4.6777,4.6775,4.6773,0,0,0,0,0,0,0,0,0,0,0,0,0,4.7058,4.7057,4.6961,4.6961,4.696,4.6892,4.6891,4.689,4.6855,4.6855,4.6856,4.6856,4.6777,4.6775,4.6772,0,0,0,0,0,0,0,0,0,0,0,0,0,4.7005,4.7056,4.6962,4.6935,4.6931,4.6892,4.6891,4.6889,4.6855,4.6855,4.6856,4.6856,4.6778,4.6775,4.6772,4.6752,0,0,4.6762,4.6761,0,0,0,0,0,0,0,0,4.7008,4.7002,4.6939,4.6936,4.6933,4.6882,4.6896,4.6843,4.6855,4.6884,4.6856,4.6856,4.6811,4.6805,4.6792,4.6748,4.6745,4.6762,4.676,4.6759,4.6758,0,0,0,0,0,0,0,4.7012,4.7004,4.6933,4.6938,4.6934,4.6924,4.6916,4.6886,4.6848,4.6882,4.6879,4.6872,4.6809,4.6795,4.679,4.6743,4.6762,4.6759,4.6757,4.6756,4.6679,4.6679,0,0,0,0,0,0,4.7021,4.7008,4.6936,4.6931,4.6972,4.6922,4.6914,4.6898,4.6848,4.6841,4.6872,4.687,4.6801,4.6794,4.6787,4.676,4.6759,4.6756,4.6754,4.6679,4.6679,4.6679,0,0,0,0,0,0,4.7023,4.7015,4.6939,4.6969,4.6958,4.692,4.6904,4.6897,4.6883,4.6841,4.6833,4.6864,4.68,4.6791,4.6761,4.6757,4.6754,4.6751,4.6679,4.6679,4.6679,4.6706,0,0,0,0,0,0,4.7026,4.7016,4.7009,4.6969,4.6957,4.6916,4.6903,4.6896,4.6878,4.6876,4.6832,4.6825,4.68,4.6766,4.6758,4.6752,4.6749,4.6679,4.6679,4.6679,4.6705,4.6707,4.6708,0,0,0,0,0,4.703,4.7018,4.7009,4.7001,4.6948,4.6916,4.6909,4.6882,4.6878,4.687,4.6843,4.6826,4.6759,4.6763,4.6754,4.6747,4.6679,4.6679,4.6679,4.6705,4.6706,4.6708,0,0,0,0,0,0,4.7056,4.7012,4.7002,4.6978,4.6951,4.691,4.69,4.6885,4.6857,4.6855,4.6821,4.6812,4.6784,4.6762,4.6768,4.6725,4.6717,4.6715,4.674,4.6742,4.6743,4.6748,4.6746,0,0,0,0,0,4.706,4.704,4.7001,4.6983,4.6971,4.6938,4.6922,4.6905,4.6875,4.6862,4.6833,4.6803,4.6775,4.6757,4.6729,4.6702,4.6691,4.6693,4.6694,4.6695,4.6694,4.6677,4.6677,4.6678,4.6678,4.6678,0,0,4.7066,4.7039,4.7028,4.6988,4.6965,4.6943,4.6928,4.6905,4.6888,4.6858,4.6829,4.6806,4.677,4.6742,4.6727,4.6722,4.6691,4.6695,4.6696,4.6694,4.6677,4.6677,4.6677,4.6677,4.6677,4.6677,0,0,4.7066,4.7044,4.7027,4.7005,4.6972,4.695,4.6946,4.6908,4.6893,4.6863,4.6841,4.6818,4.677,4.6746,4.6727,4.6718,4.6701,4.671,4.6716,4.6701,4.6701,4.6701,4.6697,4.6697,4.6708,4.6708,4.6708,0,4.7077,4.7045,4.7019,4.6998,4.6981,4.6956,4.6937,4.6916,4.6874,4.6862,4.6858,4.6798,4.6772,4.6737,4.6735,4.6721,4.6714,4.6714,4.6704,4.6703,4.6702,4.6699,4.6698,4.6709,4.6709,4.6709,4.6709,0,4.706,4.7038,4.7028,4.6991,4.6972,4.6952,4.6922,4.6906,4.6889,4.6868,4.6837,4.6805,4.677,4.676,4.6743,4.6723,4.6721,4.6711,4.6702,4.6704,4.67,4.6698,4.6711,4.6711,4.671,4.671,0,0,4.7074,4.7025,4.7021,4.7005,4.6967,4.6948,4.6926,4.6895,4.6881,4.6853,4.6833,4.6794,4.6784,4.6763,4.6742,4.6729,4.6724,4.672,4.6719,4.6722,4.67,4.6708,4.6707,4.6713,4.6713,4.6712,4.6703,0,4.7068,4.7031,4.7008,4.6979,4.6958,4.6934,4.6915,4.6888,4.6867,4.6844,4.682,4.6793,4.6782,4.6769,4.6755,4.6728,4.6719,4.6728,4.6692,4.6691,4.6702,4.6704,4.6713,4.6705,4.6701,4.67,4.67,0,4.7057,4.7033,4.7003,4.6968,4.6958,4.6941,4.691,4.689,4.6858,4.6844,4.6821,4.6801,4.6775,4.6769,4.6732,4.6739,4.6723,4.6707,4.6706,4.6701,4.6696,4.6699,4.6702,4.6701,4.6697,4.6698,4.6698,0,4.707,4.7029,4.7006,4.6993,4.6951,4.694,4.6922,4.6891,4.6873,4.6846,4.6834,4.6802,4.6785,4.676,4.6731,4.673,4.6697,4.6689,4.6683,4.6683,4.6676,4.6677,4.6676,4.6666,4.6666,4.6666,4.6667,0,4.7066,4.7049,4.7012,4.6998,4.6977,4.6949,4.6929,4.6908,4.6881,4.6861,4.6837,4.6818,4.6781,4.6757,4.6734,4.6707,4.6699,4.6685,4.6679,4.6687,4.6689,4.6676,4.6675,4.6666,4.6666,4.6666,4.6666,0,4.7077,4.7052,4.7025,4.6989,4.6979,4.6966,4.6933,4.6917,4.6896,4.687,4.6863,4.6827,4.6798,4.6767,4.6726,4.671,4.6684,4.6676,4.6695,4.6692,4.6687,4.6688,4.6678,4.6675,4.6667,4.6668,4.6668,0,4.7076,4.7063,4.7026,4.7012,4.6995,4.6973,4.6955,4.6927,4.691,4.6874,4.6862,4.6831,4.6806,4.6759,4.6728,4.6697,4.6687,4.6686,4.6682,4.6691,4.6687,4.6688,4.6686,4.6687,4.6687,4.6687,4.6687,0,4.7077,4.7066,4.7044,4.7017,4.6998,4.6975,4.695,4.694,4.6906,4.6888,4.6859,4.6839,4.6799,4.6768,4.6733,4.6711,4.6693,4.6689,4.6686,4.6694,4.6706,4.6699,4.6699,4.6689,4.6689,4.6689,4.6689,4.6689,4.7082,4.7069,4.7042,4.7017,4.6997,4.6975,4.6959,4.6936,4.6912,4.6879,4.6863,4.6834,4.6802,4.6754,4.6733,4.6708,4.6702,4.6698,4.6697,4.6696,4.6698,4.671,4.6701,4.6701,4.6701,4.6701,4.6701,0,4.7082,4.7063,4.7041,4.701,4.699,4.6978,4.695,4.6934,4.691,4.6883,4.6859,4.6825,4.6796,4.6763,4.6731,4.6717,4.6708,4.671,4.671,4.6705,4.6704,4.671,4.6718,4.6718,4.6718,4.6718,4.6718,4.6718,4.7079,4.7057,4.7042,4.7009,4.6989,4.6963,4.6948,4.6927,4.6906,4.6871,4.6847,4.6827,4.6797,4.6763,4.6734,4.6725,4.6714,4.6718,4.6707,4.6707,4.6705,4.6704,4.6709,4.6716,4.6716,4.6709,4.6709,4.6709]}]]